Location: Newark
(36.7000°N, 45.1333°E)
Time: 13:55:01
(UTC+00:00)

Hubble Space Telescope - Visible Passes

Search period start: 17 January 2021 00:00
Search period end: 27 January 2021 00:00
Orbit: 536 x 539 km, 28.5° (Epoch: 16 January)

Date Brightness Start Highest point End Pass type
(mag) Time Alt. Az. Time Alt. Az. Time Alt. Az.
17 Jan 3.1 15:24:50 10° S 15:26:48 13° SSE 15:28:34 11° SE visible
18 Jan 3.0 15:13:24 10° SSW 15:15:51 15° SSE 15:18:18 10° SE visible
18 Jan 3.6 16:53:02 10° SW 16:53:44 14° SW 16:53:44 14° SW visible
19 Jan 2.9 15:02:08 10° SSW 15:04:55 18° SSE 15:07:43 10° ESE visible
19 Jan 3.2 16:42:06 10° SW 16:43:35 18° SW 16:43:35 18° SW visible
20 Jan 2.8 14:50:58 10° SW 14:54:00 20° SSE 14:57:02 10° ESE visible
20 Jan 2.8 16:31:11 10° WSW 16:33:26 22° SSW 16:33:26 22° SSW visible
21 Jan 2.7 14:39:52 10° SW 14:43:04 22° S 14:46:17 10° ESE visible
21 Jan 2.5 16:20:18 10° WSW 16:23:17 25° SSW 16:23:17 25° SSW visible
22 Jan 2.4 16:09:27 10° WSW 16:12:51 24° S 16:13:11 24° S visible
23 Jan 2.5 15:58:38 10° WSW 16:01:56 23° S 16:03:07 20° SSE visible
24 Jan 2.8 15:47:51 10° WSW 15:51:01 21° S 15:53:07 15° SSE visible
25 Jan 3.0 15:37:06 10° WSW 15:40:05 19° SSW 15:43:04 10° SSE visible
26 Jan 3.2 15:26:26 10° WSW 15:29:09 17° SSW 15:31:53 10° SSE visible
